RH
7 8 7 8 8 8 8 8 8 8 9 9 9 9 10 10 11 11 11 11 11 11 10 8 6 6 5 4 4 3 4 8 9 8 7 6 5 6 7 7 10 13 15 17 19 18 19 19 19 29 40 45 49 48 47 51 56 62 68 71 75 79 80 78 76 75 69 61 59 57 54 54 56 55 49 46 48 47 47 46 44 43 45 46 46 49 51 50
7 7 7 7 7 7 7 7 8 8 8 9 9 9 10 10 11 11 11 11 11 11 10 7 6 7 6 6 6 5 6 8 11 12 10 7 6 6 6 7 11 13 14 17 18 17 17 17 19 29 39 45 49 49 45 47 53 60 67 70 71 77 80 79 75 71 68 62 58 57 55 54 57 55 50 48 48 46 45 43 42 44 46 47 47 50 53 52
9 8 7 6 6 6 7 7 7 7 8 8 8 9 9 10 11 11 11 11 11 11 8 6 6 6 6 7 8 9 9 9 10 12 12 9 6 6 5 5 10 13 14 17 18 17 17 16 20 29 40 45 46 47 44 47 54 54 62 71 70 71 76 78 77 73 69 63 59 58 56 55 57 55 53 51 46 43 43 42 42 44 47 47 48 52 54 54
9 9 8 7 6 6 6 6 7 7 7 8 8 9 9 10 11 11 12 11 11 11 8 6 6 7 7 8 10 11 11 11 10 11 12 10 7 6 6 5 8 11 13 16 16 17 17 17 23 30 39 42 39 42 44 48 55 54 59 69 68 64 69 79 81 77 70 61 60 59 56 57 56 56 55 52 48 45 43 44 45 44 45 48 50 53 55 56
10 10 8 7 6 6 5 6 6 7 7 8 9 9 10 10 11 12 12 11 11 11 8 6 6 7 8 8 9 9 10 14 13 11 10 10 9 7 6 5 7 9 11 14 15 17 17 17 24 31 38 39 36 39 44 46 50 54 60 63 62 60 67 81 85 82 72 60 61 61 58 59 57 58 56 54 58 53 44 44 45 44 44 49 51 52 55 57
10 10 10 8 7 6 6 6 6 7 7 8 9 10 11 11 12 12 12 11 11 11 10 7 6 7 9 9 9 8 11 16 15 11 10 10 10 8 6 6 7 9 10 13 15 17 18 17 25 33 36 37 35 35 41 47 48 52 60 58 58 62 69 82 85 83 75 63 63 62 61 61 59 60 56 54 57 50 43 43 44 43 45 50 53 53 56 58
11 11 11 9 8 7 6 6 6 7 8 9 10 10 11 12 12 12 11 11 11 10 10 8 7 8 9 9 9 9 10 14 13 12 11 9 10 9 7 7 7 8 9 11 14 16 18 18 25 34 35 35 34 32 36 45 47 51 59 56 57 67 72 79 83 83 76 67 64 63 63 62 61 61 57 53 49 43 42 43 44 44 45 51 54 53 56 59
11 11 11 10 8 7 6 6 7 7 8 9 10 11 11 12 11 11 10 10 10 10 10 8 7 7 9 8 9 11 11 12 13 12 11 10 10 10 9 8 7 7 8 10 12 15 16 18 27 33 33 33 30 30 33 39 47 54 60 57 58 70 75 79 85 83 77 72 66 65 66 64 63 62 59 55 47 42 42 43 45 44 45 51 53 54 56 60
11 10 11 10 7 7 6 6 6 7 8 9 10 11 11 11 11 10 10 9 9 9 8 8 6 6 8 7 8 12 11 11 12 12 11 10 10 10 10 9 8 8 8 9 11 14 14 18 29 31 30 29 26 29 30 37 52 55 55 56 59 70 78 82 87 84 79 75 68 68 69 67 67 63 60 59 50 43 41 43 46 44 44 48 52 54 58 61
10 10 11 10 7 6 6 6 7 7 8 9 10 11 11 11 10 10 10 10 10 9 8 9 7 6 6 6 10 12 10 9 10 10 11 11 11 10 11 10 9 9 9 8 10 13 13 19 28 28 27 26 24 29 30 37 52 51 50 54 58 69 80 85 86 83 80 77 72 72 73 70 69 65 63 62 54 44 41 43 45 44 42 46 52 54 57 61
11 11 11 9 6 5 6 6 7 8 9 10 11 11 12 11 11 11 11 11 11 10 10 10 9 8 6 7 11 11 8 9 9 10 10 10 11 12 11 10 10 9 8 7 9 12 13 17 25 27 26 24 25 30 30 36 46 47 48 53 56 64 77 84 84 83 80 77 76 76 75 74 71 68 66 64 57 46 42 43 43 43 41 44 51 53 56 60
11 11 10 7 5 5 6 6 7 9 10 11 11 12 12 11 11 12 13 13 12 11 11 11 10 9 9 10 11 10 9 9 9 10 9 8 10 12 11 9 9 10 9 7 8 11 13 17 24 27 24 23 26 33 36 37 41 45 48 54 58 59 68 80 84 84 80 76 77 77 77 76 72 70 66 64 60 50 45 43 42 42 41 44 48 51 55 58
10 10 9 6 5 5 6 7 8 10 10 11 12 12 11 12 12 12 13 14 13 12 11 11 11 10 12 13 11 10 9 9 8 8 8 7 7 10 11 9 8 9 8 8 8 10 13 19 24 25 23 22 24 36 46 42 41 48 49 52 61 62 64 73 81 84 81 80 80 79 79 76 71 71 68 64 61 54 50 46 42 42 41 43 46 49 52 57
9 9 7 5 4 5 6 8 10 11 11 11 12 12 12 12 12 12 13 14 14 13 12 12 11 10 13 13 10 10 10 8 8 7 7 7 6 9 10 10 8 7 7 7 7 9 14 20 25 25 24 23 26 36 45 43 43 48 48 51 60 67 68 69 75 80 81 84 84 81 82 80 74 72 69 65 62 57 53 49 44 42 41 42 44 47 51 56
9 8 7 5 4 5 7 9 11 12 12 12 11 12 12 12 13 12 13 14 14 13 12 13 12 13 15 13 11 11 10 10 8 7 7 7 8 10 10 11 8 6 6 6 8 10 14 21 25 24 24 24 28 36 44 48 46 43 48 56 58 64 71 70 70 74 78 82 85 83 84 85 80 76 73 67 64 59 54 50 46 43 42 41 43 46 50 56
9 8 7 5 4 5 8 11 13 13 13 12 11 11 12 13 13 13 13 13 14 13 13 13 12 14 16 13 12 12 12 11 9 8 8 9 10 11 11 11 10 7 7 6 8 10 13 22 24 22 25 26 28 38 47 50 48 44 47 55 59 60 66 69 67 67 72 77 82 83 84 87 84 80 77 70 65 62 56 51 46 42 42 41 40 43 48 54
9 8 6 5 4 5 8 12 15 16 14 12 11 12 12 13 13 13 13 14 14 13 13 13 13 15 15 13 14 14 13 11 9 9 10 10 11 11 11 11 11 9 8 8 9 10 13 21 24 23 27 31 33 41 45 45 46 48 48 51 60 60 60 67 66 64 68 73 80 83 83 87 87 83 80 73 67 64 58 51 46 43 43 42 38 40 46 52
9 8 7 5 4 5 8 12 17 18 15 13 11 12 12 12 13 13 14 14 14 15 15 15 15 18 16 13 15 14 13 12 10 10 10 10 11 11 11 11 11 9 8 9 10 11 13 17 21 24 27 34 38 40 45 47 45 49 51 52 60 60 57 64 66 63 64 70 75 79 83 86 86 86 83 76 69 66 60 52 46 44 42 41 38 38 44 48
9 8 7 6 5 5 8 13 18 19 16 13 12 13 13 13 13 14 15 15 16 17 17 16 16 18 16 14 15 14 14 13 11 11 10 10 11 11 11 10 9 9 9 12 13 13 15 16 18 21 27 35 38 38 44 48 47 50 54 54 59 59 57 58 58 58 61 66 70 72 78 84 85 87 86 80 72 68 63 52 46 44 41 40 38 37 41 45
9 8 7 6 5 5 8 13 18 19 16 13 13 13 14 14 15 16 16 16 17 16 16 16 15 16 15 14 15 14 14 14 13 12 11 11 12 10 10 9 8 8 9 14 17 15 15 17 19 22 28 31 33 39 44 43 45 48 48 50 54 54 56 58 54 54 59 63 67 66 72 81 85 86 88 85 76 69 65 55 47 44 41 39 38 38 39 42
10 8 7 6 5 6 8 13 18 18 16 14 14 14 14 15 16 16 17 17 17 17 17 16 15 16 15 15 15 14 14 13 13 13 11 12 12 11 11 9 8 9 9 14 17 16 14 17 23 24 23 23 26 35 38 38 40 39 38 41 46 48 53 55 51 51 56 60 63 64 69 79 84 86 90 89 80 71 66 58 49 44 42 40 38 39 39 41
11 9 8 6 6 6 8 13 18 18 16 15 15 15 15 15 16 16 18 18 17 17 17 16 15 16 15 15 14 13 14 13 13 12 11 11 13 13 12 10 9 9 10 11 14 15 14 16 22 20 17 19 23 27 28 29 29 29 32 35 42 50 52 55 57 53 54 60 62 63 68 76 83 86 90 91 83 74 70 64 54 46 42 40 39 38 38 41
13 10 8 7 6 6 8 12 17 19 17 16 17 16 16 16 16 17 19 18 18 18 17 17 16 16 16 16 15 14 14 13 13 12 11 12 13 13 12 9 9 9 9 10 12 16 16 17 19 17 16 18 20 24 25 25 25 25 30 35 42 48 46 52 59 53 52 58 60 61 66 74 82 86 90 91 85 79 76 69 60 52 45 41 40 38 36 39
14 12 9 7 6 6 8 11 16 19 18 17 18 17 16 16 16 17 18 18 18 17 17 16 15 15 16 15 15 16 15 14 13 13 12 13 13 12 12 10 9 9 9 9 11 15 17 16 16 14 16 18 19 22 23 26 27 25 27 33 41 45 43 44 49 50 55 59 57 59 66 72 79 87 92 91 88 85 81 73 64 55 49 45 41 39 36 37
14 13 10 7 7 6 7 10 15 18 18 17 18 17 17 16 16 18 19 18 19 17 16 16 15 15 15 14 16 17 16 15 15 14 13 14 14 13 12 11 12 12 10 8 9 11 14 14 13 13 14 15 16 18 22 26 27 26 26 30 35 40 45 46 46 52 60 64 61 58 64 72 75 82 89 90 88 86 82 76 66 57 52 48 43 38 36 35
12 13 11 8 8 6 7 10 13 17 18 17 17 17 17 17 17 19 19 19 18 16 15 16 15 14 15 15 16 17 18 18 16 15 14 15 14 14 15 14 14 16 12 8 9 9 11 12 12 13 13 13 14 14 19 22 24 26 28 32 35 40 48 52 51 56 63 69 66 57 59 69 73 77 80 84 86 84 80 75 67 59 54 49 45 39 35 34
10 13 12 9 8 6 7 10 12 15 18 18 17 17 17 17 17 20 21 20 17 15 15 15 15 15 15 15 15 16 19 19 18 16 15 16 15 15 19 18 17 17 13 10 14 13 12 12 11 12 12 13 14 14 16 17 19 28 34 35 38 43 50 52 52 55 59 64 65 61 61 64 70 76 77 80 84 83 80 74 68 65 57 50 47 41 35 33
8 11 12 10 9 7 6 7 10 13 17 18 18 18 18 18 19 21 24 23 17 15 15 14 14 15 15 16 16 16 17 17 18 18 16 17 17 16 19 19 17 17 13 13 19 18 14 13 13 13 13 13 15 15 16 14 15 27 36 38 39 44 48 48 49 53 56 56 58 64 64 61 67 75 75 79 83 83 80 74 71 68 60 51 47 42 37 34
7 9 12 11 9 8 6 6 7 10 15 18 18 18 18 19 21 22 23 22 17 14 16 15 15 15 15 16 16 16 16 16 18 19 18 17 17 18 20 19 16 16 15 14 19 20 18 16 16 14 14 15 16 15 15 13 14 23 32 35 39 42 45 45 45 51 55 53 53 61 64 60 64 72 76 79 82 82 79 74 72 68 62 56 48 43 40 36
9 8 11 12 10 8 7 6 6 8 12 17 18 19 19 20 22 25 24 21 17 16 16 16 16 15 16 16 16 17 17 17 18 19 19 19 18 18 20 19 16 17 17 17 18 20 19 18 16 15 15 16 16 16 14 12 16 25 29 32 37 40 45 46 46 50 51 50 54 61 63 60 62 68 72 75 76 78 80 78 74 69 66 60 50 42 39 37
12 8 9 12 10 9 8 7 6 6 10 16 19 20 21 21 23 27 26 19 16 16 16 16 16 15 15 16 17 17 17 18 18 19 20 20 19 20 21 21 19 17 19 20 20 20 19 18 16 15 15 15 16 18 17 15 20 27 30 34 37 42 46 45 48 52 46 46 56 61 61 61 61 65 66 66 69 74 79 79 73 68 67 62 51 44 39 36
15 9 9 11 11 9 9 9 8 7 8 14 21 22 23 24 24 24 22 18 16 17 17 18 17 16 16 16 17 18 18 18 18 19 20 19 20 20 21 23 20 20 26 25 22 23 22 18 17 18 18 16 19 24 24 22 25 26 29 35 38 43 48 46 49 53 45 47 59 60 60 60 57 60 63 62 64 70 77 79 75 71 69 63 54 46 39 35
16 11 9 10 11 9 9 9 9 8 9 14 20 23 24 27 27 23 19 17 17 17 17 18 18 17 17 17 19 19 18 19 18 19 19 19 21 21 20 21 19 21 28 24 23 30 30 24 22 25 25 21 20 27 30 29 28 28 32 38 37 39 46 44 43 48 44 51 63 61 59 56 51 55 57 57 60 63 71 78 77 74 72 68 60 51 42 35
15 13 10 9 10 10 9 8 9 10 12 14 19 23 25 27 26 22 18 18 18 17 17 18 19 19 19 18 19 19 19 21 19 19 20 20 21 21 21 21 21 21 22 21 24 29 32 34 30 27 30 27 24 28 34 35 34 30 31 37 36 35 41 43 44 47 46 51 63 64 56 50 50 55 54 55 57 60 67 73 76 76 74 73 67 56 48 38
13 13 11 9 9 11 10 8 10 12 13 15 18 22 26 29 26 21 20 19 18 18 18 19 19 20 21 20 20 19 19 21 20 20 21 21 21 22 21 21 23 22 20 25 31 27 26 33 30 23 25 26 27 31 32 34 38 37 33 37 39 36 40 47 49 50 50 54 60 60 53 46 48 53 53 54 57 60 66 69 73 78 76 75 71 61 53 43
11 12 12 9 9 11 9 9 11 12 14 17 19 22 25 28 26 22 21 20 19 20 20 19 20 21 22 22 21 20 19 20 21 21 22 22 21 21 21 21 22 23 23 27 32 29 30 34 29 24 26 25 29 36 34 32 41 47 42 38 40 41 46 54 59 54 48 52 56 55 52 49 49 51 51 53 57 61 67 68 71 78 78 76 72 64 58 49
11 11 12 10 10 11 10 11 12 12 15 17 20 22 24 25 25 22 22 21 21 20 19 20 21 21 23 23 22 22 20 19 20 21 22 22 22 22 21 21 21 23 24 24 28 30 32 36 32 26 29 30 26 32 39 36 37 49 51 43 42 45 45 54 68 66 50 47 54 56 55 53 52 56 56 54 56 60 64 67 71 77 80 77 73 68 63 55
12 11 13 12 11 11 11 12 13 11 14 18 20 22 23 25 25 24 22 21 22 21 20 21 21 22 23 24 24 23 21 20 20 20 20 21 22 22 21 21 21 23 23 24 29 31 29 34 36 29 31 35 29 31 45 43 34 43 54 50 48 54 54 53 61 62 51 46 52 54 54 53 52 57 61 59 59 61 63 65 69 74 80 80 76 72 67 56
14 13 15 15 12 11 12 13 14 13 15 19 20 20 21 24 25 24 22 22 22 22 21 21 21 22 23 24 25 25 22 20 21 20 20 21 22 21 21 20 21 22 24 24 28 30 27 30 36 34 31 34 34 36 44 47 42 43 47 47 46 53 56 52 53 55 50 48 51 52 53 54 54 57 60 60 60 62 63 64 66 69 76 81 79 75 72 63
18 16 17 17 14 13 14 15 15 14 15 19 21 20 20 23 25 24 23 23 23 23 22 21 21 22 23 23 24 25 25 23 23 21 20 20 20 20 20 19 21 21 23 26 26 28 28 28 33 36 34 34 39 40 39 46 50 48 50 53 50 47 46 46 50 52 49 46 48 51 50 53 59 61 60 58 57 59 61 62 64 65 71 79 80 78 77 68
18 19 19 19 16 15 16 17 17 17 17 19 20 21 22 23 26 26 24 24 25 24 23 22 22 22 23 24 24 25 26 26 25 22 20 19 18 20 21 20 21 22 23 26 28 29 29 29 31 34 34 38 42 40 36 40 43 42 50 58 55 50 49 48 49 49 47 44 45 50 53 55 62 64 62 60 58 56 58 60 62 65 68 76 80 80 78 70
18 20 21 20 18 17 17 19 21 19 18 19 19 21 22 24 27 27 26 26 25 25 24 23 23 23 23 24 26 26 26 27 27 23 20 19 18 19 21 20 20 21 22 24 27 28 29 30 30 30 34 39 41 40 40 41 42 42 47 52 50 47 46 47 47 48 49 47 46 52 57 61 66 66 62 62 60 57 57 59 62 65 69 74 79 80 80 76
20 20 22 21 19 18 18 23 26 22 19 20 19 19 22 24 27 28 27 27 27 26 25 24 24 23 23 25 26 27 27 28 28 25 22 21 19 19 19 20 20 20 21 23 25 27 29 30 31 30 34 39 39 41 42 43 46 50 48 46 45 46 46 43 45 51 52 49 51 53 54 62 70 68 63 64 63 59 59 61 62 66 70 74 79 80 82 81
24 22 22 22 21 20 20 25 30 27 24 22 18 18 22 23 26 28 27 28 28 27 27 26 25 24 24 25 26 27 28 28 29 28 25 23 22 20 19 19 21 21 22 24 25 26 28 32 33 31 34 38 39 40 40 41 48 51 48 45 45 46 47 48 54 60 53 48 52 52 53 65 71 66 64 65 64 61 60 62 64 67 72 76 79 82 82 81
28 25 25 24 24 23 23 25 29 31 31 29 23 21 22 23 24 26 27 28 29 28 29 28 25 24 25 25 27 28 28 28 30 30 27 24 23 20 18 19 21 22 24 25 23 23 27 31 32 32 33 37 42 46 45 44 49 49 46 45 44 43 46 50 57 59 50 48 55 56 59 68 68 65 67 67 65 63 61 61 64 69 74 78 81 85 85 83
31 27 27 27 26 25 25 26 28 30 34 34 29 25 24 24 25 26 27 28 28 28 30 29 26 24 25 26 27 29 28 27 29 30 28 27 26 22 20 20 21 23 26 23 20 21 25 28 30 33 34 34 41 49 49 47 49 50 50 50 46 43 43 45 49 51 50 52 60 65 69 70 67 70 72 68 66 65 61 61 65 69 75 80 83 86 89 87
34 31 31 31 30 28 28 28 28 30 34 35 33 31 29 26 28 29 29 30 30 30 30 29 27 25 26 27 28 29 30 29 29 31 30 29 28 25 21 20 20 21 23 22 19 19 23 26 28 32 33 33 38 45 46 48 51 50 50 54 51 45 43 43 48 52 54 55 60 70 75 70 68 74 73 67 66 66 64 63 64 67 74 82 85 87 90 89
37 36 35 35 34 33 33 34 32 33 34 35 36 36 33 30 31 33 33 33 33 32 32 30 28 26 26 28 29 30 31 32 31 32 31 30 30 27 24 22 20 20 21 20 18 17 19 24 26 26 30 32 35 40 43 49 52 49 50 55 54 49 45 44 47 50 52 55 60 67 73 69 65 67 70 69 67 66 66 64 63 67 72 79 86 90 92 91
40 40 39 38 38 36 37 38 36 35 35 36 37 37 36 35 34 35 35 37 37 35 33 32 30 28 26 28 29 31 32 34 34 33 32 32 33 31 28 26 23 21 21 20 20 17 16 21 23 20 23 28 32 36 40 43 46 47 49 52 53 52 49 47 48 47 50 57 59 60 67 69 62 61 68 73 70 65 65 64 65 69 72 75 82 90 93 91
43 45 43 42 40 38 38 39 38 39 41 41 40 39 38 37 37 38 37 38 40 40 36 33 32 30 28 28 29 31 32 33 34 34 34 33 35 35 32 29 25 23 21 21 21 18 17 22 24 19 20 26 28 31 36 38 41 42 43 44 45 48 48 48 50 48 48 57 58 54 60 67 63 61 65 73 74 68 67 70 72 75 77 77 79 85 89 89
42 45 46 46 44 40 40 41 40 43 47 46 44 43 43 41 40 41 39 37 40 42 39 36 34 32 29 29 29 30 32 33 32 34 34 34 36 37 35 32 28 25 23 22 21 19 18 20 22 20 21 25 27 29 32 34 36 37 37 39 41 43 46 48 50 48 48 54 55 52 58 63 61 60 62 68 73 71 71 76 77 77 81 82 80 83 86 85
42 45 48 47 45 42 41 41 40 44 48 49 49 48 46 45 43 42 42 41 40 41 40 39 37 35 32 30 30 31 33 34 33 33 33 34 36 36 35 34 30 27 26 23 21 21 19 19 23 25 25 27 28 30 31 30 31 34 40 44 43 42 46 47 47 46 46 48 52 56 58 58 55 56 61 65 69 69 71 73 73 75 80 83 82 82 84 87